Погода в Каунасе

Погода в Каунасе : погода сейчас, прогноз погоды и архив. Всё, что Вы хотите узнать о погоде в Каунасе!

Поиск расширенной информации на нашем сайте:

Другие новости

Новости СМИ2

Главная страница сайта

Новости сайта

03.07.2017

Напоминаем, что на нашем специализированном сайте Метеоцентр.Азия вы можете получить высокодетализированные автоматические прогнозы погоды по пунктам России, СНГ и мира в авиационном формате (включающие направление и скорость ветра, видимость, явления погоды, количество и форму облачности, нижнюю и верхнюю границу облачности).

Рекомендуем: застройщик продает. квартиры в Новостройках от застройщика в Новосибирске. новостройки дешево

Погода в Каунасе - сегодня

Время (UTC), дата Ветер
(°,м/с) 
Видим.   Явления Облачность Т
(°С)
Тd
(°С)
f(%) Тe
(°С)
Pmin
(гПа)
dP
(гПа)
Po
(мм)
O2
(г/м3)
Тmin Tmax R s Состояние
почвы
00 16.02.18 150 (ЮВ) 7000 м  дымка  10/10 2000 м 
[Ac As]
-6.1 -8 86 -9  1025.3  -1.1             
03 16.02.18 150 (ЮВ) 4-5{06}  6000 м  слаб. снег  10/10 1470 м 
[Ns]
-4.8 -6.5 88 -8  1023.6  -1.7  760  313           
06 16.02.18 150 (ЮВ) 4-6  5000 м  слаб. снег  10/10 1500 м 
[Ns]
-4.4 -6.4 86 -8  1022.2  -1.4  759  312  -7.8    0.0  равномерный
сухой снег
100% 
09 16.02.18 160 (Ю) 5-7{08}  3700 м  в посл. час переохл. осадки (гололёд){снег, морось} [диам. гололёда 1 мм]  10/10 240 м 
[St]
-3.5 -4 96 -7  1021.4  -0.7  759  310           
12 16.02.18 160 (Ю) 4-6{07}  5000 м  дымка{снег, морось} [диам. гололёда 0 мм]  10/10 300 м 
[Sc]
-2.2 -4.4 85 -5  1020.2  -1.1  758  308      0.0   
15 16.02.18 170 (Ю) 2-3{07}  5000 м  в посл. час снег [диам. гололёда 0 мм]  10/10 450 м 
[Ns]
-1.4 -4 82 -2  1019.8  -0.4  758  307           
18 16.02.18 180 (Ю) 3-3{03}  2400 м  снег  10/10 360 м 
[Ns]
-1.5 -3 89 -3  1019.8  758  307    -1.3  0.0   
21 16.02.18 200 (Ю) 3-4{04}  2100 м  слаб. снег  10/10 240 м 
[Ns]
-1.6 -1.6 100 -4  1019.6  -0.2  757  307           
00 17.02.18 220 (ЮЗ) 2-3{04}  2000 м  в посл. час снег  10/10 150 м 
[St]
-0.8 -0.8 100 -2  1019.2  -0.4  757  306      0.7   
03 17.02.18 190 (Ю) 4-5{05}  4100 м  слаб. снег{дождь}  10/10 420 м 
[Ns]
-0.3 -0.3 100 -3  1018  -1.2  756  305           
06 17.02.18 200 (Ю) 4-8{08}  1900 м  слаб. снег  10/10 150 м 
[Ns]
-0.1 -0.1 100 -3  1016  -1.9  755  304  -1.9    равномерный
сухой снег
100% 
09 17.02.18 290 (З) 4-6{08}  4900 м  слаб. снег{дождь}  10/10 100 м 
[Ns]
+0.5 +0.5 100 -2  1016.1  0.1  755  303           
12 17.02.18 320 (СЗ) 5-8{09}  2800 м  слаб. снег{дождь}  10/10 210 м 
[Ns]
-0.6 -1.5 94 -4  1018.4  2.2  756  306      0.8   
15 17.02.18 320 (СЗ) 3-5{09}  6000 м  в посл. час снег  10/10 300 м 
[Sc]
-1.5 -2.7 92 -3  1019.4  757  307           
18 17.02.18 340 (С) 4-7{08}  6000 м  дымка{снег}  10/10 450 м 
[Sc]
-2.2 -3.8 89 -5  1020.4  0.9  758  308    +0.6  0.8   
21 17.02.18 290 (З) 3-4{07}  6000 м  дымка  10/10 660 м 
[Sc]
-2.6 -4.2 89 -5  1020.9  0.5  758  309           
00 18.02.18 310 (СЗ) 2-3{05}  8000 м  слаб. снег  10/10 330 м 
[Frnb|Ns]
-2.8 -3.8 93 -4  1021.5  0.6  759  309      0.0   
03 18.02.18 330 (СЗ) 3-5{07}  19000 м  в посл. час снег  10/10 870 м 
[Sc]
-3.3 -5.4 85 -5  1022.3  0.8  759  310           
06 18.02.18 320 (СЗ) 3-5{06}  9000 м  слаб. снег  10/10 840 м 
[Ns]
-3.8 -5.2 90 -6  1023.2  0.9  760  311  -3.8    0.0  равномерный
сухой снег
100% 
09 18.02.18 330 (СЗ) 4-7{07}  4400 м  слаб. снег  10/10 270 м 
[Frnb|Ns]
-3 -3.7 95 -6  1024.1  0.9  761  310           
12 18.02.18 360 (С) 5-10{11}  19000 м  {снег}  10/10 700 м 
[Sc]
-2.4 -7.6 67 -6  1025  0.9  761  310      0.3   
15 18.02.18 310 (СЗ) 3-5{10}  19000 м  слаб. снег  8/6 1440 м средняя 
[Sc|Ac trans]
-2.2 -6.1 75 -4  1025.5  0.5  762  310           
18 18.02.18 270 (З) 4-6{06}  9000 м  слаб. снег  10/10 1300 м 
[Ns]
-2.9 -5.2 84 -6  1025.2  -0.3  761  311    -1.8  0.3   
21 18.02.18 280 (З) 5-7{08}  17000 м  слаб. снег  10/10 1500 м 
[Ns]
-2.2 -3.7 89 -6  1024.3  -0.9  761  309           
00 19.02.18 280 (З) 3-5{08}  9000 м  слаб. снег  6/4 1500 м средняя 
[Sc|Ac trans]
-2.8 -3.2 97 -5  1024.1  -0.2  761  310      0.0   
Время (UTC), дата Ветер
(°,м/с) 
Видим.   Явления Облачность Т
(°С)
Тd
(°С)
f(%) Тe
(°С)
Pmin
(гПа)
dP
(гПа)
Po
(мм)
O2
(г/м3)
Тmin Tmax R s Состояние
почвы

Для получения пояснительной информации подведите курсор к названию столбца.

ПОГОДА в Каунасе - архив

Всё, что Вы хотите узнать о погоде в Каунасе - удобно и подробно!

Выберите нужную дату (начиная с 1 января 2015* года) и нажмите кнопку "Найти".
Будут отображены архивные сводки погоды по пункту Каунас, начиная с указанной даты.


Отображать данные в формате CSV (для использования в таблицах Excel)


Внимание! Наш архив погоды предназначен исключительно для личного некоммерческого использования в познавательных целях. Если Вам необходимы официальные справки о состоянии погоды (для производственных, юридических, коммерческих и т.п. целей), обращайтесь в органы Росгидромета.

*Примечание: данная дата относится к архиву по метеостанциям СССР (Россия, СНГ, Балтия).
Архив по метеостанциям Зарубежной Европы и Азии (кроме Китая) хранится 10 дней, по другим регионам земного шара (Китай, Африка, Америка, Австралия, Океания) - 1 день.

Каунас - район местоположения метеостанции


Название, широта, долгота, высота метеостанции:
Каунас 54.9°ш. 23.8°д. 77 м над ур. моря [Литва]

Дополнительная информация

В oтличие oт бoльшинства пoгoдных сайтoв мы публикуем пoдрoбную метеoинфoрмацию в детальнoм прoфессиoнальнoм фoрмате.

Характеристики температуры и влажнoсти вoздуха измеряются на высoте 2 м в тени вдали oт зданий и деревьев.
Скoрoсть ветра измеряется на высoте 10 м (на урoвне рoста челoвека скoрoсть ветра ниже в 1.5-2 раза). Если метеoстанция нахoдится в гoрoде или в лесу, тo скoрoсть ветра занижена на 2-4 м/с пo сравнению с oткрытым местoм. Скoрoсть ветра над акватoриями крупных рек и oзёр, а также на вершинах хoлмoв на 2-5 м/с выше, чем в oбычных услoвиях.
Атмoсфернoе давление в разных тoчках местнoсти мoжет значительнo oтличаться oт давления на метеoстанции, в зависимoсти oт услoвий рельефа (при пoдъёме на 10 м давление пoнижается примернo на 1 мм рт.ст.).